This demonstration page uses our WeatherBlox Daily Observations layout. Learn more.

Left ArrowRight Arrow

39.01783, -85.05884

Hourly Observations for October 23, 2015

Temp ( °F °C ) Dew Point ( °F °C ) Humidity (%) Winds ( mph kmh ) Pressure ( in mb ) Visibility ( mi km ) Precip ( " mm )
12:52 am 00:52 Mostly Clear 65 18.3 55 12.8 70 70 NE 6 9 30.20 1023 9 14 N/A
1:52 am 01:52 Mostly Clear 63 17.2 55 12.8 76 76 ENE 7 11 30.19 1023 9 14 N/A
2:52 am 02:52 Partly Cloudy 62 16.7 54 12.2 75 75 NE 6 9 30.19 1022 9 14 N/A
3:52 am 03:52 Partly Cloudy 62 16.7 54 12.2 75 75 NE 7 11 30.19 1023 9 14 N/A
4:52 am 04:52 Mostly Cloudy 60 15.6 53 11.7 78 78 ENE 7 11 30.18 1022 9 14 N/A
5:52 am 05:52 Mostly Cloudy 59 15 52 11.1 78 78 ENE 7 11 30.19 1022 9 14 N/A
6:52 am 06:52 Mostly Cloudy 57 13.9 51 10.6 81 81 E 6 9 30.21 1023 9 14 N/A
7:52 am 07:52 Mostly Cloudy 56 13.3 51 10.6 84 84 E 5 7 30.22 1023 8 13 N/A
8:52 am 08:52 Mostly Cloudy 58 14.4 52 11.1 81 81 E 8 13 30.22 1023 7 11 N/A
9:52 am 09:52 Mostly Cloudy 60 15.6 53 11.7 78 78 E 10 17 30.22 1024 8 13 N/A
10:52 am 10:52 Partly Cloudy 63 17.2 54 12.2 73 73 ESE 7 11 30.22 1023 9 14 N/A
11:52 am 11:52 Mostly Cloudy 67 19.4 55 12.8 66 66 ESE 7 11 30.20 1023 9 14 N/A
12:52 pm 12:52 Mostly Cloudy 69 20.6 56 13.3 63 63 ESE 5 7 30.19 1022 10 16 N/A
1:52 pm 13:52 Mostly Cloudy 72 22.2 57 13.9 59 59 VRB 7 11 30.16 1021 9 14 N/A
2:52 pm 14:52 Mostly Cloudy 72 22.2 57 13.9 59 59 E 6 9 30.13 1020 10 16 N/A
3:52 pm 15:52 Mostly Cloudy 75 23.9 57 13.9 54 54 VRB 3 6 30.10 1019 10 16 N/A
4:52 pm 16:52 Mostly Cloudy 75 23.9 57 13.9 54 54 ESE 6 9 30.08 1019 10 16 N/A
5:52 pm 17:52 Mostly Cloudy 73 22.8 57 13.9 57 57 E 9 15 30.07 1018 10 16 N/A
6:52 pm 18:52 Mostly Cloudy 70 21.1 57 13.9 64 64 E 8 13 30.08 1019 10 16 N/A
7:52 pm 19:52 Cloudy 69 20.6 57 13.9 66 66 ESE 5 7 30.09 1019 10 16 N/A
8:52 pm 20:52 Cloudy 66 18.9 56 13.3 70 70 SSE 5 7 30.09 1019 10 16 N/A
9:52 pm 21:52 Cloudy 67 19.4 54 12.2 63 63 S 5 7 30.08 1019 10 16 N/A
10:52 pm 22:52 Mostly Cloudy 64 17.8 54 12.2 70 70 SE 6 9 30.07 1018 10 16 N/A
11:52 pm 23:52 Mostly Cloudy 65 18.3 54 12.2 68 68 SSE 6 9 30.05 1018 10 16 N/A

Powered by AerisWeather